Regional Weather Roundup
Issued by NWS

Home | Current Version | Previous Version | Text Only | Print | Product List | Glossary On
Versions: 1 2 3 4 5 6 7 8 9 10 11 12 13 14 15 16 17 18 19 20 21 22 23 24 25 26 27 28 29 30 31 32 33 34 35 36 37 38 39 40 41 42 43 44 45 46 47 48 49 50
000
ASUS44 KFWD 180610
RWRTX
NORTH TEXAS HOURLY WEATHER ROUNDUP
NATIONAL WEATHER SERVICE FORT WORTH TX
1200 AM CST THU DEC 18 2014

NOTE: "FAIR" INDICATES FEW OR NO CLOUDS BELOW 12,000 FEET WITH NO
SIGNIFICANT WEATHER AND/OR OBSTRUCTIONS TO VISIBILITY.

TXZ118-119-180700-
DALLAS/FORT WORTH METROPLEX

CITY           SKY/WX    TMP DP  RH WIND       PRES   REMARKS
DFW AIRPORT    DRIZZLE   41  40  96 E9        30.15F FOG     WCI  35
6HR MIN TEMP:  41; 6HR MAX TEMP:  42; 6HR PCP:  0.19;

DALLAS LOVE    LGT RAIN  42  40  92 E8        30.17R FOG     WCI  37
6HR MIN TEMP:  42; 6HR MAX TEMP:  43; 6HR PCP:  0.20;

FTW MEACHAM    CLOUDY    43  41  93 E8        30.14F FOG     WCI  38
6HR MIN TEMP:  43; 6HR MAX TEMP:  44; 6HR PCP:  0.13;

DAL-EXECUTIVE  LGT RAIN  43  41  93 E8        30.15F WCI  38
6HR MIN TEMP:  43; 6HR MAX TEMP:  46; 6HR PCP:  0.12;

FTW-ALLIANCE   DRIZZLE   41  41 100 SE8       30.15F FOG     WCI  36
6HR MIN TEMP:  41; 6HR MAX TEMP:  42; 6HR PCP:  0.08;

FTW-SPINKS     CLOUDY    43  42  95 E6        30.16F FOG     WCI  40
6HR MIN TEMP:  43; 6HR MAX TEMP:  44; 6HR PCP:  0.19;

ARLINGTON        N/A     44  40  85 MISG      30.16S
6HR MIN TEMP:  44; 6HR MAX TEMP:  46; 6HR PCP:  0.16;

GRAND PRAIRIE  CLOUDY    42  42 100 E6        30.18R WCI  39
6HR MIN TEMP:  42; 6HR MAX TEMP:  44; 6HR PCP:  0.09;

ADDISON        CLOUDY    41  41 100 E7        30.18F FOG     WCI  37
6HR MIN TEMP:  41; 6HR MAX TEMP:  43; 6HR PCP:  0.19;

MESQUITE       CLOUDY    40  40  98 E6        30.19S WCI  36
6HR MIN TEMP:  40; 6HR MAX TEMP:  43; 6HR PCP:  0.33;

LANCASTER      LGT RAIN  42  40  93 E7        30.18F WCI  37
6HR MIN TEMP:  42; 6HR MAX TEMP:  43; 6HR PCP:  0.27;

$$

TXZ091>094-102>105-117-120-121-131>134-180700-
NORTH CENTRAL TEXAS

CITY           SKY/WX    TMP DP  RH WIND       PRES   REMARKS
SHRMAN/DENISON CLOUDY    39  39 100 CALM      30.17F
6HR MIN TEMP:  38; 6HR MAX TEMP:  39; 6HR PCP:  0.10;

GAINESVILLE    CLOUDY    38  37  97 SE6       30.17F WCI  34
6HR MIN TEMP:  37; 6HR MAX TEMP:  38; 6HR PCP:  0.03;

BOWIE          CLOUDY    39  39  99 SE5       30.13S FOG     WCI  35
6HR MIN TEMP:  38; 6HR MAX TEMP:  39;

BRIDGEPORT     CLOUDY    40  40 100 SE5       30.16S WCI  37
6HR MIN TEMP:  40; 6HR MAX TEMP:  42; 6HR PCP:  0.03;

DECATUR        CLOUDY    39  39 100 E7        30.14S FOG     WCI  34
6HR MIN TEMP:  39; 6HR MAX TEMP:  39; 6HR PCP:  0.02;

DENTON         CLOUDY    40  40 100 E7        30.15F FOG     WCI  35
6HR MIN TEMP:  40; 6HR MAX TEMP:  41; 6HR PCP:  0.05;

MCKINNEY       CLOUDY    39  38  96 SE6       30.17F WCI  35
6HR MIN TEMP:  39; 6HR MAX TEMP:  41; 6HR PCP:  0.15;

GREENVILLE     DRIZZLE   39  37  93 E3        30.19F
ROCKWALL       LGT RAIN  40  40  99 E9G16     30.16F WCI  34
6HR MIN TEMP:  40; 6HR MAX TEMP:  41; 6HR PCP:  0.13;

TERRELL        LGT RAIN  42  40  92 NE9       30.19S FOG     WCI  37
6HR MIN TEMP:  42; 6HR MAX TEMP:  44; 6HR PCP:  0.14;

WAXAHACHIE     HVY RAIN  42  42 100 E5        30.18S WCI  39
6HR MIN TEMP:  42; 6HR MAX TEMP:  43; 6HR PCP:  0.20;

CLEBURNE       CLOUDY    43  43 100 E7        30.16S FOG     WCI  39
GRANBURY       CLOUDY    45  44  93 E5        30.15F FOG
6HR MIN TEMP:  45; 6HR MAX TEMP:  46; 6HR PCP:  0.07;

$$

TXZ083>090-098>101-113>116-127>130-139>142-154-155-180700-
WESTERN NORTH TEXAS

CITY           SKY/WX    TMP DP  RH WIND       PRES   REMARKS
WICHITA FALLS  CLOUDY    40  39  97 SE7       30.13S WCI  35
6HR MIN TEMP:  39; 6HR MAX TEMP:  40; 6HR PCP: TRACE;

WF-KICKAPOO    CLOUDY    41  41 100 SE3       30.15S FOG
6HR MIN TEMP:  40; 6HR MAX TEMP:  41;

VERNON         CLOUDY    42  38  86 SE8       30.11F WCI  36
6HR MIN TEMP:  32; 6HR MAX TEMP:  52;

ABILENE        CLOUDY    51  48  89 S6        30.07F
6HR MIN TEMP:  49; 6HR MAX TEMP:  52;

ABILENE-DYESS  CLOUDY    51  46  84 S12       30.05F
6HR MIN TEMP:  48; 6HR MAX TEMP:  51;

BRECKENRIDGE   CLOUDY    46  45  95 SE3       30.10F
6HR MIN TEMP:  45; 6HR MAX TEMP:  46;

GRAHAM         CLOUDY    43  42  98 SE3       30.11S
6HR MIN TEMP:  42; 6HR MAX TEMP:  43;

MINERAL WELLS  CLOUDY    43  42  97 SE7       30.12S FOG     WCI  39
6HR MIN TEMP:  43; 6HR MAX TEMP:  43; 6HR PCP:  0.01;

STEPHENVILLE   CLOUDY    44  42  93 SE5       30.14F
6HR MIN TEMP:  44; 6HR MAX TEMP:  46; 6HR PCP:  0.04;

COMANCHE       FOG       45  45 100 SE5       30.13S VSB 1
6HR MIN TEMP:  45; 6HR MAX TEMP:  46; 6HR PCP:  0.01;

BROWNWOOD      CLOUDY    48  48 100 E5        30.11F FOG
COLEMAN        FOG       48  48 100 CALM      30.10S VSB 3/4
6HR MIN TEMP:  47; 6HR MAX TEMP:  49;

BRADY          CLOUDY    48  48 100 CALM      30.09S FOG
$$

TXZ143>147-156>162-174-175-180700-
CENTRAL TEXAS

CITY           SKY/WX    TMP DP  RH WIND       PRES   REMARKS
WACO           CLOUDY    46  44  93 N5        30.16S
6HR MIN TEMP:  46; 6HR MAX TEMP:  48; 6HR PCP: TRACE;

WACO-MCGREGOR  CLOUDY    46  39  76 N6        30.17S
6HR MIN TEMP:  46; 6HR MAX TEMP:  48;

HILLSBORO      LGT RAIN  44  42  92 NE8       30.16F WCI  39
6HR MIN TEMP:  44; 6HR MAX TEMP:  45; 6HR PCP:  0.01;

CORSICANA      CLOUDY    46  44  93 N6        30.17F FOG
6HR MIN TEMP:  46; 6HR MAX TEMP:  47; 6HR PCP: TRACE;

MEXIA          CLOUDY    46  44  95 NE5       30.13F
6HR MIN TEMP:  46; 6HR MAX TEMP:  47; 6HR PCP:  0.01;

HEARNE         CLOUDY    49  47  92 N6        30.14S
6HR MIN TEMP:  48; 6HR MAX TEMP:  49;

CAMERON        CLOUDY    49  46  92 N7        30.14F
6HR MIN TEMP:  48; 6HR MAX TEMP:  49;

TEMPLE         CLOUDY    46  43  87 N6        30.14S
6HR MIN TEMP:  46; 6HR MAX TEMP:  48;

KILLEEN        CLOUDY    46  46  99 N5        30.14S FOG
6HR MIN TEMP:  46; 6HR MAX TEMP:  47; 6HR PCP: TRACE;

KILLEEN-SKYLRK CLOUDY    46  39  76 N5        30.12S
6HR MIN TEMP:  46; 6HR MAX TEMP:  48;

FORT HOOD      CLOUDY    46  46 100 NE6       30.13S FOG
                                      6HR PCP: TRACE;

GATESVILLE     CLOUDY    45  45 100 CALM      30.16S
HAMILTON       CLOUDY    46  46 100 SE6       30.13F FOG
6HR MIN TEMP:  45; 6HR MAX TEMP:  47; 6HR PCP:  0.01;

LAMPASAS       FOG       48  47  97 CALM      30.12S VSB 3/4
6HR MIN TEMP:  46; 6HR MAX TEMP:  48; 6HR PCP:  0.02;

$$

TXZ095>097-106>112-122>126-135>138-148>153-164>167-180700-
EAST TEXAS

CITY           SKY/WX    TMP DP  RH WIND       PRES   REMARKS
PARIS          CLOUDY    37  36  93 SE16      30.19F WCI  28
6HR MIN TEMP:  37; 6HR MAX TEMP:  39; 6HR PCP:  0.54;

SULPHUR SPRNGS LGT RAIN  40  40  99 NE6       30.23S WCI  36
6HR MIN TEMP:  39; 6HR MAX TEMP:  42; 6HR PCP:  0.18;

MOUNT PLEASANT CLOUDY    40  39  99 NE9       30.21F WCI  33
6HR MIN TEMP:  40; 6HR MAX TEMP:  44; 6HR PCP:  0.21;

MINEOLA        CLOUDY    43  43 100 N3        30.19S
TYLER          CLOUDY    44  41  89 NE9       30.16F WCI  39
6HR MIN TEMP:  44; 6HR MAX TEMP:  48; 6HR PCP:  0.11;

LONGVIEW       CLOUDY    44  41  89 E8        30.17F WCI  39
6HR MIN TEMP:  44; 6HR MAX TEMP:  47; 6HR PCP:  0.06;

MARSHALL       MOCLDY    46  44  91 CALM      30.21F
6HR MIN TEMP:  46; 6HR MAX TEMP:  48; 6HR PCP:  0.05;

ATHENS         CLOUDY    43  43 100 NE5       30.15F
PALESTINE      CLOUDY    46  46  97 NE5       30.16S
JACKSONVILLE   CLOUDY    46  45  99 NE7       30.16S FOG
HENDERSON      CLOUDY    44  44  99 NE5       30.17F
6HR MIN TEMP:  44; 6HR MAX TEMP:  46;

NACOGDOCHES    CLOUDY    46  45  93 E6        30.15F
6HR MIN TEMP:  46; 6HR MAX TEMP:  50;

LUFKIN         CLOUDY    53  45  74 E8        30.14F
6HR MIN TEMP:  53; 6HR MAX TEMP:  54; 6HR PCP: TRACE;

$$

SUPPLEMENTAL OBSERVATIONS (CENTRAL)

CITY           SKY/WX    TMP DP  RH WIND       PRES   REMARKS
CADDO GRASSLND   N/A     37  34  87 SE5         N/A  WCI  34
PAT MAYSE LAKE   N/A     37  36  93 E5          N/A  WCI  34
GREENVILLE       N/A     39  36  87 E9          N/A  WCI  33
CEDAR HILL       N/A     43  39  87 E1G10       N/A
PALESTINE        N/A     46  43  87 NE3         N/A
MCGREGOR         N/A     46  43  87 NE5         N/A
TEMPLE           N/A     48  45  87 NE7         N/A
$$

SUPPLEMENTAL OBSERVATIONS (WEST)



USA.gov is the U.S. government's official web portal to all federal, state and local government web resources and services.